Regional Weather Roundup
Issued by NWS Grand Forks, ND

Home | Current Version | Previous Version | Text Only | Print | Product List | Glossary Off
Versions: 1 2 3 4 5 6 7 8 9 10 11 12 13 14 15 16 17 18 19 20 21 22 23 24 25 26 27 28 29 30 31 32 33 34 35 36 37 38 39 40 41 42 43 44 45 46 47 48 49 50

000
ASUS43 KFGF 301210
RWRFGF
PRAIRIE TO PINES  WEATHER ROUNDUP
NATIONAL WEATHER SERVICE EASTERN NORTH DAKOTA/GRAND FORKS ND
700 AM CDT MON MAY 30 2016

 **SATELLITE DATA USED TO AUGMENT SKY COVER AT AUTOMATED STATIONS**
 *****  WEATHER ACROSS EASTERN NORTH DAKOTA  *****

CITY           SKY/WX    TMP DP  RH WIND       PRES   REMARKS
GRAND FORKS    MOSUNNY   59  49  69 CALM      29.91S
6HR MIN TEMP:  48; 6HR MAX TEMP:  59;

GRAND FRKS AFB PTSUNNY   61  52  74 W3        29.92R
GRAND FRKS NWS   N/A     57 N/A N/A MISG        N/A
DEVILS LAKE    MOSUNNY   56  51  84 S6        29.93R
6HR MIN TEMP:  51; 6HR MAX TEMP:  58;

FARGO          MOSUNNY   59  48  67 SE6       29.94R
WAHPETON ARPT  SUNNY     55  46  71 SE5       29.96F
$$

 ***** WEATHER ACROSS CENTRAL AND WESTERN NORTH DAKOTA  *****

CITY           SKY/WX    TMP DP  RH WIND       PRES   REMARKS
BISMARCK       CLEAR     53  52  96 NE3       29.94S
6HR MIN TEMP:  50; 6HR MAX TEMP:  57;

MINOT          CLEAR     53  48  83 CALM      29.89S
6HR MIN TEMP:  50; 6HR MAX TEMP:  59;

JAMESTOWN      SUNNY     56  52  86 S7        29.94R
6HR MIN TEMP:  50; 6HR MAX TEMP:  57;

MINOT AFB      CLEAR     50  47  88 CALM      29.89R
GARRISON         N/A     53  49  86 NE3       29.91S
WILLISTON      CLOUDY    48  43  82 NE5       29.90S
6HR MIN TEMP:  44; 6HR MAX TEMP:  50;

DICKINSON      CLEAR     50  46  86 SE3       29.89F
6HR MIN TEMP:  46; 6HR MAX TEMP:  52;

HETTINGER      CLEAR     52  48  86 SE3       29.91F
6HR MIN TEMP:  43; 6HR MAX TEMP:  56;

$$

 *****  OTHER AIRPORT OBSERVATIONS IN OUR AREA  *****

CITY           SKY/WX    TMP DP  RH WIND       PRES   REMARKS
WALHALLA       FAIR      54  50  87 CALM      29.91R
GRAFTON AIRPOR PTSUNNY   54  54 100 S5        29.93S
VALLEY CITY AR FAIR      52  52 100 S5        29.97R
CANDO          NOT AVBL
CAVALIER APRT  FAIR      54  50  87 CALM      29.91R
GWINNER        FAIR      59  54  82 SW5       29.96F
SHEYENNE NWR     N/A     54  51  90 SW5       29.95
ROLLA          FAIR      55  45  67 W8        29.93S
 ***** THE ABOVE OBSERVATIONS ARE NON NWS ARE NOT QUALITY
       CONTROLLED AND MAY MIS-REPORT RAIN FOR SNOW...
$$

  *****  WEATHER ACROSS NORTHERN MINNESOTA  *****

CITY           SKY/WX    TMP DP  RH WIND       PRES   REMARKS
FLAG ISLAND    NOT AVBL
WARROAD        SUNNY     52  48  87 CALM      29.95R
ROSEAU         SUNNY     52  46  82 CALM      29.94R
HALLOCK        SUNNY     54  52  94 SE6       29.91S
THF RVR FALLS  SUNNY     55  46  71 S6        29.95S
6HR MIN TEMP:  52; 6HR MAX TEMP:  55;

BAUDETTE       SUNNY     50  49  96 CALM      29.95R
6HR MIN TEMP:  44; 6HR MAX TEMP:  50;

WASKISH        SUNNY     54  54 100 CALM      29.95S
CROOKSTON      SUNNY     54  52  94 SE7       29.94S
STEPHEN NDAWN    N/A     57  52  82 S6          N/A
GREENBUSH NDAW   N/A     55  54  94 S2          N/A
$$
  *****  WEATHER ACROSS CENTRAL AND WEST MINNESOTA  *****

CITY           SKY/WX    TMP DP  RH WIND       PRES   REMARKS
FOSSTON        SUNNY     55  46  71 S5        29.97S
BEMIDJI        SUNNY     49  49  99 SW5       29.97S
PARK RAPIDS    CLOUDY    58  51  78 CALM      29.98S
6HR MIN TEMP:  50; 6HR MAX TEMP:  58;

ELBOW LAKE     FAIR      58  50  75 SE3       29.98F
6HR MIN TEMP:  53; 6HR MAX TEMP:  59;

WADENA         MOSUNNY   54  52  94 CALM      29.99S
DETROIT LAKES  CLOUDY    61  52  72 CALM      29.99S
MOORHEAD       MOSUNNY   57  48  72 SE6       29.96S
FERGUS FALLS   SUNNY     59  50  72 SE5       29.95S
MORRIS MN      MOSUNNY   55  52  88 S8        29.98R
STAPLES        CLOUDY    55  52  88 CALM      29.99S
$$
  *****  WEATHER ELSEWHERE ACROSS MINNESOTA  *****

CITY           SKY/WX    TMP DP  RH WIND       PRES   REMARKS
DULUTH         SUNNY     58  52  80 W10       29.98R
6HR MIN TEMP:  50; 6HR MAX TEMP:  58;

INTRNTL FALLS  SUNNY     50  49  96 CALM      29.96R
6HR MIN TEMP:  44; 6HR MAX TEMP:  52;

ELY            SUNNY     54  50  87 W7        29.95S
CLOQUET        SUNNY     57  52  82 W5        29.98S
WHEATON        SUNNY     61  52  72 S3        29.99S
BRAINERD       CLOUDY    55  53  93 S3        30.00S
6HR MIN TEMP:  48; 6HR MAX TEMP:  56;

HIBBING        SUNNY     48  48 100 CALM      29.97R
6HR MIN TEMP:  39; 6HR MAX TEMP:  48;

ALEXANDRIA     SUNNY     57  52  83 CALM      30.00S
6HR MIN TEMP:  51; 6HR MAX TEMP:  57;

SAINT CLOUD    SUNNY     55  53  93 CALM      29.99S
6HR MIN TEMP:  49; 6HR MAX TEMP:  55;

MINNEAPOLIS    CLOUDY    62  58  86 CALM      30.00R
6HR MIN TEMP:  60; 6HR MAX TEMP:  66;

$$

  *****  WEATHER ACROSS SOUTH DAKOTA  *****

CITY           SKY/WX    TMP DP  RH WIND       PRES   REMARKS
SIOUX FALLS    CLOUDY    62  53  72 SE6       29.99F
6HR MIN TEMP:  54; 6HR MAX TEMP:  64;

BROOKINGS      CLOUDY    61  53  75 E6        29.96F
WATERTOWN      CLOUDY    61  53  75 S7        29.98F
6HR MIN TEMP:  54; 6HR MAX TEMP:  62;

HURON          CLOUDY    61  56  83 S9G18     29.92F
6HR MIN TEMP:  59; 6HR MAX TEMP:  65; 6HR PCP:  0.20;

SISSETON         N/A     65  51  60 SW15      29.95F
ABERDEEN       SUNNY     57  52  83 SE8       29.94F
6HR MIN TEMP:  51; 6HR MAX TEMP:  59;

MITCHELL       PTCLDY    61  58  90 E8        29.97R
PIERRE         CLOUDY    60  55  83 SE12      29.92F
6HR MIN TEMP:  58; 6HR MAX TEMP:  63; 6HR PCP:  0.02;

MOBRIDGE       CLEAR     58  54  86 SE7       29.90S
RAPID CITY     CLOUDY    48  47  96 E3        29.90S
6HR MIN TEMP:  46; 6HR MAX TEMP:  56;

$$

  *****  SOME WEATHER IN NEARBY STATES *****

CITY           SKY/WX    TMP DP  RH WIND       PRES   REMARKS
GLASGOW MT     CLOUDY    58  44  60 SW8       29.92R
6HR MIN TEMP:  52; 6HR MAX TEMP:  58;

GREAT FALLS MT CLEAR     44  38  79 NW3       30.02R
6HR MIN TEMP:  43; 6HR MAX TEMP:  52; 6HR PCP: TRACE;

CHEYENNE WY    CLEAR     46  38  73 W6        30.08S
6HR MIN TEMP:  43; 6HR MAX TEMP:  51;

SCOTTSBLUFF NE CLEAR     49  46  90 E3        29.98S
6HR MIN TEMP:  48; 6HR MAX TEMP:  60;

OMAHA NE       MOSUNNY   63  60  90 CALM      30.02R
6HR MIN TEMP:  61; 6HR MAX TEMP:  73;

DES MOINES IA  PTSUNNY   67  61  81 S6        30.02R
6HR MIN TEMP:  65; 6HR MAX TEMP:  72;

DAVENPORT IA   SUNNY     67  60  78 CALM      30.03R
6HR MIN TEMP:  61; 6HR MAX TEMP:  69;

CHICAGO IL     MOSUNNY   68  60  75 CALM      30.02R
6HR MIN TEMP:  63; 6HR MAX TEMP:  68;

EAU CLAIRE WI  SUNNY     59  57  93 CALM      30.00F
6HR MIN TEMP:  53; 6HR MAX TEMP:  61;

LA CROSSE WI   FOG       60  59  96 S5        30.02S VSB 1/2
6HR MIN TEMP:  56; 6HR MAX TEMP:  63;

$$

  *****  SOME NATIONAL WEATHER *****

CITY           SKY/WX    TMP DP  RH WIND       PRES   REMARKS
LA GUARDIA NY  CLOUDY    71  71 100 SW5       29.98R
6HR MIN TEMP:  69; 6HR MAX TEMP:  71; 6HR PCP:  1.06;

RALEIGH NC     FOG       68  66  93 N5        30.01S VSB 1/4
6HR MIN TEMP:  66; 6HR MAX TEMP:  68;

ATLANTA GA     MOSUNNY   71  61  70 SW5       30.05R
6HR MIN TEMP:  67; 6HR MAX TEMP:  71;

NEW ORLEANS LA PTSUNNY   75  72  90 W3        30.03R
6HR MIN TEMP:  73; 6HR MAX TEMP:  76;

OKLAHOMA CITY  CLOUDY    66  64  93 SE8       30.03R
6HR MIN TEMP:  64; 6HR MAX TEMP:  68; 6HR PCP:  0.07;

ALBUQUERQUE NM PTCLDY    56  43  61 N7        30.12R
6HR MIN TEMP:  56; 6HR MAX TEMP:  69;

SALT LAKE CITY PTCLDY    56  46  69 S7        30.09R
6HR MIN TEMP:  55; 6HR MAX TEMP:  64; 6HR PCP:  0.01;

LOS ANGELES CA MOCLDY   C1F1C2F2C3F3C4F4C5F5C6F6C7F7C8F8C9F9CaFaCbFbCcFcCd!



USA.gov is the U.S. government's official web portal to all federal, state and local government web resources and services.